GFSWCAN_2pvu_pres_132.txt.gz
Presure
263 265 260 252 248 240 243 248 240 254 247 232 238 231 243 237 227 241 233 237 234 235 231 234 245 265 259 254 263 257 244 257 251 248 270 255 261 378 357 337 340 334 321 320 317 318 305 306 313 320 310 317 320 326
262 278 254 253 261 240 256 254 247 230 244 247 241 243 228 239 234 248 234 232 235 246 245 247 246 240 260 259 254 250 260 247 261 259 257 258 294 367 343 320 331 315 335 308 322 307 303 303 306 304 301 305 303 302
266 272 256 250 251 243 260 263 243 244 232 250 235 243 247 234 242 245 240 232 228 232 239 245 241 247 245 243 252 253 253 255 262 259 250 264 294 361 335 334 323 324 301 316 322 317 295 290 300 295 293 289 285 298
270 260 257 253 246 272 268 267 257 249 232 242 246 241 229 231 235 232 232 232 234 233 240 235 247 264 255 251 250 248 248 258 257 248 257 272 374 357 336 318 309 310 319 316 304 296 292 302 295 290 284 290 285 286
273 265 259 257 244 259 270 264 258 252 240 245 238 241 255 231 230 230 236 239 245 250 244 245 251 259 248 247 243 243 254 256 245 247 257 283 372 349 321 316 302 304 302 294 290 290 298 297 274 280 272 282 282 284
275 275 263 254 248 249 265 280 260 251 248 245 248 241 240 241 235 255 234 240 230 234 241 248 241 254 247 239 244 248 253 250 243 250 264 290 378 358 331 309 306 311 299 292 273 295 292 282 284 281 278 266 270 272
272 274 264 256 253 249 255 282 288 277 258 249 248 261 247 248 242 245 248 238 240 252 259 258 247 252 246 251 254 249 254 243 248 255 281 413 394 326 324 311 293 306 272 292 278 283 295 271 272 271 273 282 283 271
270 271 265 257 254 246 249 252 259 281 291 280 268 258 254 248 245 243 239 246 256 263 259 257 255 255 253 253 253 256 241 244 253 267 285 438 353 349 326 307 297 316 272 277 268 276 272 283 282 264 273 280 283 277
271 279 272 258 254 252 246 247 250 253 260 297 293 293 292 296 286 275 274 280 268 260 248 250 242 247 252 256 264 236 243 246 261 274 281 406 326 344 322 310 294 284 293 273 272 275 285 285 283 278 263 282 279 286
280 280 274 266 260 251 249 247 242 243 248 288 279 277 277 277 278 278 274 260 248 253 254 248 251 253 241 252 235 238 244 255 263 279 286 354 313 337 326 285 298 293 286 301 269 273 274 258 272 295 284 275 282 285
277 279 282 269 260 257 250 243 245 241 244 252 276 275 278 277 273 266 257 253 254 255 258 255 255 253 254 239 240 248 252 260 278 274 284 375 359 328 273 311 300 291 287 281 286 277 273 292 279 265 272 281 285 276
284 277 278 283 267 259 258 249 244 250 244 245 255 268 268 268 267 259 253 251 253 256 260 256 252 240 240 242 247 252 257 269 273 276 329 350 363 299 267 299 303 286 285 282 278 295 272 269 269 286 283 281 281 272
294 281 278 268 287 267 254 260 251 246 249 247 242 237 237 249 245 257 255 261 260 250 244 240 244 240 246 242 250 259 268 268 271 281 341 349 353 312 322 312 301 288 296 269 269 280 281 280 287 277 281 286 282 277
304 294 285 276 261 283 268 260 254 251 243 238 241 240 240 240 237 237 239 240 241 243 245 236 241 246 250 251 261 268 277 268 277 376 331 327 349 346 328 315 292 302 278 283 255 259 270 275 284 286 278 281 283 282
311 300 294 287 276 259 274 274 261 256 251 249 247 247 243 241 244 243 244 244 243 238 239 245 252 251 251 257 274 273 264 283 386 357 326 319 335 327 348 308 300 282 276 275 281 276 270 265 277 285 282 286 277 282
312 309 303 297 280 273 268 268 275 264 258 253 247 248 245 246 246 246 244 242 244 251 254 253 249 258 269 274 254 276 288 382 364 329 320 308 331 338 338 352 297 294 279 270 277 275 284 275 270 280 280 277 283 270
349 313 308 306 290 282 277 276 278 278 273 266 261 257 254 254 254 255 256 254 249 177 252 259 266 286 263 270 276 299 373 369 335 321 310 323 330 323 333 340 293 275 282 293 282 281 265 264 282 269 281 276 276 299
358 331 315 309 304 289 283 284 283 273 271 274 272 266 258 264 263 264 265 264 245 263 273 282 269 268 271 284 359 366 364 346 324 311 298 311 315 275 310 298 287 281 286 290 279 264 276 272 282 271 270 290 289 271
373 352 332 315 304 302 294 287 289 271 260 260 252 258 265 267 233 267 271 284 271 267 268 266 272 281 325 366 364 360 349 321 306 293 288 299 304 289 290 290 285 284 276 264 278 265 265 276 209 210 283 265 264 274
365 371 360 334 319 310 304 296 289 281 280 283 241 279 277 271 271 211 273 272 271 270 273 283 307 369 359 360 349 338 316 292 306 298 290 285 290 302 275 286 287 286 285 280 273 166 126 127 129 133 273 272 277 284
355 350 364 371 360 331 319 308 300 292 286 285 283 282 281 277 278 269 280 280 283 296 372 378 367 357 349 318 312 306 288 293 290 306 301 295 286 291 298 265 272 273 273 275 295 126 276 284 270 188 268 285 278 310
375 362 364 368 370 373 364 376 329 314 308 304 300 297 227 296 300 303 331 373 354 349 357 352 328 308 305 285 287 293 294 304 330 331 324 278 251 291 276 275 275 282 279 278 275 269 213 274 280 299 303 298 292 289
404 400 362 360 308 362 357 357 277 365 372 371 368 368 373 370 379 360 343 336 358 337 305 301 298 294 296 296 298 304 312 320 331 337 327 316 286 276 271 268 264 269 275 283 286 288 288 287 284 280 278 282 282 281
405 402 359 346 345 344 347 318 358 217 169 356 359 365 333 326 323 337 351 313 298 291 291 293 317 336 345 316 304 289 281 271 274 271 269 268 268 271 273 272 272 271 272 270 271 277 287 291 293 295 299 300 299 298
351 351 352 353 351 350 349 345 345 342 323 314 322 322 352 343 326 298 291 286 284 288 284 294 289 286 279 274 274 275 254 252 269 269 266 264 265 271 275 276 280 296 307 311 312 310 314 321 326 336 346 353 357 357
314 308 314 316 314 310 307 307 307 322 347 349 339 320 301 294 286 283 280 286 281 275 273 290 288 278 260 253 265 271 265 266 266 261 260 256 264 267 272 273 334 349 354 353 349 347 349 351 354 357 358 363 365 368
328 313 311 321 339 345 357 373 336 314 302 291 288 285 284 281 275 288 283 288 290 285 275 263 252 268 271 267 265 262 258 257 261 262 269 271 275 276 282 291 358 352 348 349 352 358 365 376 420 456 461 456 452 454
331 329 328 330 312 296 290 294 297 292 289 288 281 286 288 290 287 283 283 273 263 250 248 274 274 265 263 259 259 259 256 270 266 264 270 266 274 277 290 303 361 350 350 355 366 427 431 416 409 407 406 405 405 407
291 286 288 284 282 289 291 292 290 290 286 286 283 281 278 276 268 266 260 255 268 276 271 263 260 254 261 262 254 261 262 262 268 269 271 266 275 286 291 307 362 353 355 367 416 473 467 458 454 460 453 443 432 392
280 289 289 288 287 285 280 281 279 282 281 278 276 266 260 259 262 262 275 278 272 264 261 256 262 263 264 255 251 260 257 261 264 274 272 276 281 289 295 313 364 355 360 367 445 424 411 399 423 436 429 436 443 440
283 277 279 279 278 275 278 274 269 265 265 269 267 270 269 270 286 280 275 264 260 259 255 254 253 252 257 261 258 269 259 267 257 276 270 275 283 289 297 318 364 355 359 370 431 405 391 382 437 428 427 425 422 417
309 299 303 287 307 296 295 289 301 299 293 292 336 308 294 282 278 269 251 256 254 253 251 252 252 257 253 260 253 263 265 258 266 274 271 276 288 291 299 324 362 356 359 423 421 397 382 404 397 393 392 400 399 397
320 332 339 345 344 343 341 340 336 331 322 303 290 279 260 261 261 257 256 254 252 253 258 255 254 254 258 263 261 266 263 257 268 273 277 280 294 294 303 326 358 356 357 367 417 396 380 390 426 420 416 411 406 401

GFSWCAN_2pvu_pres_138.txt.gz
Presure
260 250 256 248 253 232 239 247 256 254 275 261 273 256 260 259 267 265 263 260 258 260 255 250 247 248 241 225 260 246 240 231 228 237 245 262 263 259 259 253 269 254 287 356 359 342 313 336 321 334 311 324 312 326
264 259 255 251 260 254 248 238 258 267 273 249 240 255 268 263 252 258 248 245 245 243 249 246 240 236 234 236 234 232 227 240 232 244 268 261 258 257 252 268 256 278 353 331 341 332 330 320 313 312 298 301 308 309
263 255 255 260 251 249 257 252 239 247 234 243 241 260 245 258 241 257 242 237 241 230 232 235 241 230 229 229 233 229 234 231 239 250 254 259 253 248 262 264 249 283 357 326 331 331 339 318 300 284 306 284 290 290
259 256 255 254 256 249 252 254 242 248 246 229 238 256 248 244 248 244 253 244 240 245 236 234 237 234 231 229 226 231 237 230 234 265 250 258 252 257 269 250 267 279 347 323 316 335 328 315 306 304 290 285 282 279
273 262 260 242 249 246 246 244 248 241 260 231 238 246 249 257 232 251 245 252 238 239 245 237 230 226 230 238 238 225 236 249 254 260 257 257 254 267 250 249 264 301 341 322 318 315 294 308 302 270 276 277 288 283
279 267 261 259 251 241 250 244 245 241 233 257 231 238 228 228 242 229 237 225 227 233 238 222 226 225 235 237 229 244 243 242 256 262 259 252 259 254 245 251 274 306 322 311 317 309 293 285 285 262 279 273 269 265
257 274 265 257 256 255 254 248 250 240 239 241 244 250 245 237 232 227 228 230 225 229 236 233 239 230 229 234 233 250 245 247 269 257 250 253 255 238 243 255 283 364 339 314 313 304 284 275 282 284 273 263 265 269
264 269 254 261 267 255 258 253 251 250 241 241 242 238 244 238 236 237 242 245 242 239 229 234 229 228 234 233 245 244 250 270 260 252 252 256 243 241 252 265 278 361 332 320 307 312 295 290 274 280 264 277 270 280
263 263 265 253 257 263 262 255 257 252 249 247 237 242 240 248 259 250 238 240 235 235 239 241 245 247 247 243 245 260 271 263 254 252 253 252 241 244 257 278 273 359 338 320 303 299 298 285 270 276 271 272 285 268
265 263 262 268 258 257 260 257 261 259 244 240 249 255 247 246 263 262 263 258 252 247 249 253 235 238 233 251 262 270 267 252 257 254 246 241 245 254 254 274 274 357 336 322 304 301 309 295 280 274 269 268 275 273
273 266 263 267 260 251 263 253 243 252 252 237 242 240 242 247 268 263 257 256 252 249 243 250 253 250 257 262 268 273 254 259 253 241 240 244 257 253 263 275 281 358 333 324 305 295 293 295 297 291 277 284 266 285
277 270 263 260 259 261 255 258 257 249 242 240 235 238 241 249 279 288 274 271 268 263 261 262 262 269 273 276 271 255 256 254 239 241 234 252 256 256 280 271 363 378 339 322 310 275 298 297 290 287 287 283 275 287
279 275 267 265 253 256 257 256 258 252 252 244 241 237 243 259 261 256 246 271 271 275 281 278 280 282 278 263 255 252 253 238 240 238 248 250 251 269 271 271 368 339 355 328 296 277 295 296 290 288 283 271 283 288
286 276 272 267 263 255 256 256 264 260 258 242 241 239 243 244 242 241 241 287 286 285 282 279 278 274 261 257 255 236 237 241 238 232 250 251 275 271 271 376 363 342 323 342 319 300 306 301 298 291 284 276 281 276
284 284 278 272 265 264 262 256 270 260 257 247 244 242 236 237 240 238 244 246 272 267 271 272 270 254 243 233 232 240 240 243 246 253 257 277 274 275 393 381 356 336 325 327 341 357 290 307 306 293 277 289 276 289
287 282 282 277 268 265 265 263 265 262 256 252 249 241 239 239 241 241 244 243 238 236 241 238 232 231 234 236 237 239 248 249 256 258 270 272 289 396 378 372 325 314 296 329 342 332 354 351 315 295 304 277 281 292
313 288 282 277 274 270 265 261 262 265 267 267 257 244 240 239 241 246 244 237 239 234 235 205 238 236 234 240 247 246 255 258 268 273 270 271 390 380 355 327 318 313 331 334 323 340 351 352 327 294 289 285 292 298
316 306 286 281 275 270 267 264 261 263 263 264 262 245 241 244 242 239 240 240 236 234 234 238 239 243 243 248 248 260 262 279 269 267 294 392 376 359 329 319 315 311 323 322 315 316 323 321 298 288 282 278 279 274
318 316 306 291 280 274 265 261 262 259 257 260 266 268 257 252 247 246 248 245 244 245 243 242 248 246 249 252 264 261 281 263 261 322 388 373 338 319 311 304 298 303 309 308 289 299 297 295 288 286 287 221 218 290
316 322 323 317 296 284 275 270 270 266 261 258 261 268 267 259 253 250 248 246 246 246 243 218 244 247 269 263 260 266 262 268 369 369 340 315 305 306 307 308 311 306 290 290 290 287 282 167 170 170 180 135 281 283
323 324 327 330 322 308 292 286 282 275 269 267 265 270 273 272 268 265 263 262 263 266 262 256 273 265 256 260 260 261 307 395 343 326 302 295 322 334 346 353 307 293 285 282 279 274 273 271 275 276 278 279 280 284
335 328 332 336 329 320 308 301 273 287 283 270 264 266 261 259 259 258 259 264 273 275 269 262 258 251 253 264 261 315 381 333 306 298 318 326 300 293 290 281 274 273 272 273 269 271 270 268 275 280 303 355 366 369
343 334 342 340 332 326 315 308 300 295 285 276 270 270 265 264 272 271 267 258 262 265 258 252 255 263 285 273 380 352 327 292 316 309 288 279 276 273 267 270 266 271 270 271 272 277 273 293 289 305 356 376 372 370
353 348 347 348 335 334 318 230 309 304 302 298 285 276 273 268 270 270 264 262 262 259 264 278 290 266 330 369 334 318 295 323 290 277 275 270 260 270 266 256 267 267 269 267 273 285 278 285 304 319 373 367 370 376
353 365 369 358 348 342 328 314 310 302 304 306 307 310 305 307 304 307 303 302 297 299 308 302 320 373 351 321 302 362 292 279 278 268 259 266 262 255 271 269 268 270 271 275 276 284 289 297 309 381 374 371 429 434
347 363 374 372 367 358 344 337 333 330 318 316 316 317 316 316 306 306 307 313 314 312 342 371 356 326 315 342 298 286 278 276 261 266 261 259 263 263 261 260 260 259 262 270 275 283 289 301 313 380 373 430 427 403
365 344 346 342 342 347 350 356 354 354 351 349 340 338 333 336 352 355 362 374 368 363 354 332 311 317 302 290 286 275 267 262 265 258 261 263 258 255 256 260 262 251 246 267 276 286 288 302 386 380 378 445 409 388
333 340 321 332 338 337 342 343 353 354 361 359 361 360 357 353 359 362 352 344 344 329 310 298 299 293 286 285 272 253 266 262 261 257 257 263 261 264 255 258 255 265 252 259 276 288 292 303 383 380 398 434 400 380
379 351 356 348 353 357 350 353 347 344 347 341 339 339 341 345 341 343 330 321 307 298 298 289 277 291 273 247 269 263 259 261 258 259 251 249 259 260 253 264 256 255 267 279 276 284 297 309 384 380 380 437 409 377
328 335 337 336 335 334 332 333 333 329 325 325 336 353 342 311 311 312 301 297 296 286 277 294 274 251 273 267 255 258 264 260 259 260 255 262 263 252 263 264 265 268 270 279 280 290 299 327 388 378 374 408 424 383
352 345 341 338 336 334 338 343 351 347 329 315 309 304 298 302 292 288 281 280 290 296 270 250 275 273 261 252 260 259 253 254 253 255 253 265 264 262 260 260 267 270 274 281 281 293 303 338 384 377 372 405 431 402
302 296 301 303 303 305 305 303 306 304 301 301 295 293 285 280 283 292 296 301 277 257 259 277 272 262 258 254 253 256 255 255 261 258 254 247 256 255 248 269 268 273 287 282 283 293 305 339 379 377 370 393 444 425
283 289 289 285 291 298 302 302 299 292 291 288 286 287 284 284 283 274 261 260 258 265 277 277 264 257 259 254 256 257 257 260 252 246 258 245 257 256 268 250 271 279 287 281 298 295 308 338 378 378 368 377 444 434

GFSWCAN_2pvu_pres_141.txt.gz
Presure
270 267 261 263 257 262 261 253 259 263 260 271 254 253 256 286 293 294 280 287 294 292 289 288 283 283 277 277 252 255 263 251 245 236 241 241 234 236 240 265 266 262 260 270 269 313 386 353 339 340 325 325 313 324
272 263 254 252 253 252 243 246 252 251 238 302 296 284 279 280 279 270 275 267 286 282 279 267 265 273 277 268 266 256 241 232 246 244 231 230 229 238 246 256 263 259 269 265 254 365 346 341 339 322 308 294 303 307
275 261 267 250 254 252 254 254 271 263 269 287 283 280 274 275 271 279 280 276 275 270 273 274 262 261 258 240 235 239 242 230 232 229 229 230 229 243 248 259 258 267 265 249 298 357 348 353 321 311 304 304 297 295
264 257 262 249 245 255 265 248 255 267 270 266 242 262 265 260 268 261 253 265 259 258 256 253 243 243 236 227 225 226 233 229 226 227 230 236 250 262 259 256 258 265 257 261 321 345 352 331 313 307 299 292 291 287
261 265 263 264 247 253 242 248 238 249 251 242 245 272 264 264 248 248 239 242 253 246 250 241 233 222 230 239 233 231 228 229 223 228 228 224 256 259 258 252 262 259 250 271 307 336 337 312 317 306 288 290 276 282
261 262 263 254 248 265 247 246 248 245 250 239 243 241 257 241 251 240 249 233 229 234 233 231 236 233 239 231 227 223 226 229 227 236 244 257 272 261 250 255 257 248 254 286 287 332 333 310 300 287 285 273 283 285
264 255 266 266 249 256 249 249 252 252 252 241 245 241 258 249 243 236 240 241 242 237 227 240 226 242 224 221 225 229 234 241 236 229 260 271 263 252 253 258 248 248 253 280 291 334 324 319 296 289 281 271 277 277
260 258 257 254 253 251 253 244 257 256 246 245 233 228 256 248 243 236 228 241 242 246 237 226 221 219 222 228 228 237 233 232 229 258 268 270 254 253 255 250 241 247 259 281 358 335 320 319 300 289 288 287 287 270
258 258 257 254 255 258 231 242 242 254 235 239 250 260 228 246 250 231 242 230 230 226 230 232 228 231 240 236 232 231 234 239 253 261 276 260 254 256 251 241 241 252 267 275 359 334 317 308 314 295 287 280 277 273
262 260 261 264 255 252 252 256 241 240 246 238 233 255 235 239 239 242 237 238 241 238 237 233 242 237 235 233 244 240 247 248 262 265 271 259 253 254 240 237 248 250 280 276 354 346 316 315 303 305 297 281 283 271
273 261 260 262 259 256 248 247 253 252 244 249 237 232 239 231 238 241 231 240 257 246 233 235 232 257 256 245 248 256 256 263 265 276 259 257 251 236 240 241 259 262 276 273 363 341 321 306 298 295 299 303 291 281
270 268 263 258 262 250 254 251 248 243 246 244 233 241 247 243 246 248 246 254 257 272 258 251 251 247 246 252 256 260 264 272 286 261 255 247 241 236 240 259 262 283 274 324 356 343 331 312 307 269 291 294 297 297
266 259 265 261 257 257 245 242 254 252 255 252 253 252 241 245 249 237 242 250 259 268 263 255 259 264 265 263 273 278 283 279 259 257 240 237 244 241 256 256 278 271 279 370 353 343 331 320 305 289 287 295 298 297
269 263 256 254 258 263 257 251 256 242 251 247 253 249 242 237 233 235 246 256 254 269 275 273 270 271 276 282 287 280 266 259 241 235 240 243 240 254 261 285 272 286 379 370 357 335 329 345 327 309 268 304 301 298
271 268 266 260 252 259 255 261 258 256 254 253 251 250 246 233 229 238 241 240 243 245 282 285 279 278 278 278 266 259 240 233 236 242 243 242 255 260 285 273 332 389 374 371 329 322 320 321 329 345 341 314 329 308
282 275 268 266 261 257 255 259 261 252 260 261 264 243 244 243 233 239 243 240 238 238 245 256 258 260 248 244 239 236 236 238 243 243 243 261 264 272 275 385 389 370 343 329 316 326 336 345 344 339 357 362 372 331
286 281 276 268 262 262 255 253 253 254 257 254 255 256 249 246 242 242 242 239 238 237 239 236 233 234 236 237 242 238 240 241 246 246 261 265 269 276 388 383 366 333 315 322 326 332 316 313 314 315 314 310 317 314
293 285 283 277 269 264 260 259 258 252 252 256 259 258 260 248 245 244 240 237 237 234 236 234 234 235 237 235 236 240 245 245 248 263 271 267 274 401 367 330 316 306 305 306 312 312 297 302 304 305 304 299 294 291
307 295 288 281 276 271 267 260 260 261 258 257 256 259 272 258 253 251 249 242 241 241 242 241 244 232 236 239 244 248 248 252 262 270 265 275 370 333 313 313 316 314 302 290 289 291 291 289 287 283 279 279 277 177
316 309 299 294 286 281 275 269 267 263 262 264 262 261 263 266 265 268 264 249 244 239 240 245 245 249 245 249 244 250 255 264 272 262 276 339 331 299 320 341 347 318 302 292 289 284 279 274 273 275 279 276 131 129
321 316 314 297 294 290 283 276 269 269 262 262 258 259 262 264 266 267 265 249 252 254 248 248 247 245 248 248 260 263 265 270 261 279 306 330 304 336 323 297 289 281 274 269 270 272 274 264 273 273 286 290 292 304
324 320 321 314 307 293 288 286 282 275 272 271 269 267 265 261 257 260 262 269 274 269 261 256 255 257 266 266 272 269 261 263 276 367 321 313 324 297 286 277 271 269 267 264 266 270 265 272 273 270 273 295 303 312
314 323 321 315 316 310 307 298 262 285 277 271 265 266 263 262 261 259 259 264 269 270 269 268 266 261 265 269 268 255 268 280 370 325 315 309 292 281 273 263 265 258 272 269 267 268 266 273 281 274 284 303 306 378
310 338 337 326 319 313 311 302 294 296 285 278 244 214 265 270 268 265 263 262 263 255 252 251 251 267 261 267 262 271 279 363 332 311 298 281 276 269 264 260 268 265 262 263 263 253 259 264 277 281 294 303 317 386
353 361 360 362 341 329 315 310 304 299 297 295 292 291 294 294 291 290 266 267 267 264 266 267 269 270 267 259 276 330 371 328 309 307 275 276 264 264 259 262 260 257 254 260 253 263 270 261 275 283 297 304 339 384
364 363 373 377 368 340 314 318 316 313 310 306 302 300 299 294 293 290 286 280 278 275 275 276 273 278 293 315 368 357 314 328 303 278 268 267 263 256 258 259 256 260 265 263 264 264 275 255 276 283 298 308 404 385
356 267 352 354 354 354 334 324 318 319 317 312 310 311 309 292 302 298 293 293 299 302 309 308 311 313 341 376 339 327 335 282 281 274 267 262 255 252 258 247 251 255 252 264 264 268 274 263 279 280 298 313 402 383
351 362 335 340 338 338 337 343 347 273 328 327 322 324 321 320 317 318 326 277 329 322 330 359 372 369 363 320 332 293 279 285 272 266 259 258 254 254 248 253 256 264 264 258 269 273 269 270 280 283 299 316 366 385
340 340 330 351 348 333 344 349 355 359 361 361 353 356 351 358 357 374 368 369 364 360 359 359 353 338 310 319 290 288 281 273 264 259 257 255 262 256 253 259 256 260 252 254 269 271 284 279 282 296 298 338 353 388
364 371 361 329 359 372 343 349 351 353 355 356 360 356 357 358 355 352 346 344 342 342 339 333 310 308 287 273 289 268 273 264 262 260 260 256 250 253 250 252 246 246 255 253 272 279 270 274 292 296 299 341 340 393
354 357 354 352 354 354 351 354 355 352 351 347 347 343 335 328 336 330 333 334 332 327 309 299 307 274 281 277 257 274 261 261 262 262 255 253 251 255 234 255 256 253 269 274 279 307 272 281 302 298 305 343 346 391
335 326 317 315 309 308 312 307 308 308 316 326 340 348 327 315 314 319 317 315 301 300 303 276 282 289 260 254 274 265 262 260 255 255 255 253 255 251 253 253 256 256 269 275 302 285 277 287 303 296 308 341 350 392
294 294 296 304 323 335 345 348 344 337 328 316 310 305 301 298 302 302 294 288 281 279 285 292 264 256 277 278 268 264 264 255 254 256 254 252 255 249 257 243 254 258 250 285 299 276 286 299 301 294 310 339 347 363

GFSWCAN_2pvu_pres_144.txt.gz
Presure
292 293 292 284 304 294 293 294 276 286 284 286 288 286 305 291 274 271 276 268 266 267 269 272 280 306 281 257 277 276 264 262 255 260 259 260 251 247 244 237 237 244 244 247 245 272 275 272 264 378 343 345 338 334
277 285 268 282 280 283 284 267 275 275 280 279 274 275 271 272 274 278 278 277 279 275 306 299 300 299 282 283 273 263 259 257 257 255 255 243 239 237 242 238 238 242 248 241 270 271 277 259 294 355 368 341 322 315
285 281 257 270 274 261 273 260 264 274 276 265 260 263 264 270 265 275 275 304 302 301 312 300 285 294 275 269 272 256 264 248 256 246 240 239 234 239 232 234 239 241 247 274 264 268 264 272 296 373 343 324 299 304
277 268 265 257 255 268 254 263 264 259 256 263 260 262 259 258 307 300 293 291 301 282 277 276 279 278 276 269 261 251 256 250 232 239 236 238 233 231 232 242 238 237 269 264 264 266 252 285 359 350 338 300 310 303
255 268 249 262 237 261 261 259 251 257 255 264 304 289 294 288 282 268 272 272 273 272 268 266 259 248 274 271 253 242 234 236 232 230 227 230 232 229 234 235 243 274 271 262 266 257 261 288 351 340 320 316 297 299
260 271 267 251 256 254 264 267 251 271 296 278 279 280 283 264 280 266 277 265 254 249 255 269 261 252 248 229 225 237 225 224 223 228 229 242 234 236 229 240 280 270 261 265 259 252 260 282 354 332 336 311 290 296
255 254 268 245 259 256 261 264 263 277 251 248 270 259 260 259 252 256 258 233 254 239 243 231 235 237 235 228 225 235 234 230 225 229 226 234 235 242 236 274 275 261 261 260 253 251 258 285 346 334 331 312 293 284
255 256 264 265 236 260 251 247 237 253 242 245 261 266 265 246 245 241 249 245 232 233 236 236 228 226 231 229 226 236 228 224 223 230 233 239 234 240 266 279 264 260 261 254 248 259 274 282 348 329 320 307 296 283
265 256 251 259 260 242 248 257 242 250 236 244 245 255 252 248 237 242 244 238 239 232 229 228 225 237 228 223 240 233 221 227 235 243 244 239 239 265 276 268 262 260 256 247 250 262 294 277 356 328 320 313 301 294
271 252 252 249 264 255 259 236 253 255 250 242 226 247 257 233 241 241 223 233 237 226 231 236 240 230 237 223 230 228 233 243 231 233 246 240 264 270 276 263 260 257 243 246 258 300 277 286 348 333 313 307 314 300
266 262 259 259 248 251 237 252 253 250 232 242 230 232 227 244 246 244 238 230 231 228 235 235 230 235 232 232 229 239 239 237 243 249 265 267 271 284 263 259 251 245 248 255 306 275 282 361 345 334 320 309 304 298
263 260 263 251 254 251 252 249 246 254 248 249 239 243 244 231 234 235 237 238 237 232 236 233 232 234 235 239 246 236 240 262 245 267 276 288 277 260 254 238 248 248 261 306 278 293 380 357 348 335 326 315 305 290
255 262 256 255 249 242 256 260 246 237 244 238 235 242 247 231 231 230 232 229 231 237 231 232 243 265 267 263 256 257 257 268 270 287 292 262 256 245 238 247 251 266 292 277 379 380 364 353 340 341 332 327 315 313
260 254 256 251 248 248 244 241 245 250 246 252 240 237 232 232 232 226 229 235 241 246 244 259 275 279 272 268 267 270 274 283 298 274 257 248 237 237 249 250 272 269 287 403 389 373 365 363 340 330 320 342 345 337
261 260 249 253 256 251 251 248 258 253 247 244 244 251 232 227 237 238 235 240 234 242 255 245 245 278 280 279 285 289 288 281 260 248 240 236 245 248 255 275 269 304 395 379 365 346 334 327 321 328 338 352 349 345
257 258 260 254 252 252 252 252 254 251 253 251 251 242 242 243 237 239 229 234 235 248 237 235 239 259 274 273 272 269 259 245 239 233 242 242 239 254 271 273 286 394 351 328 324 327 334 328 315 312 314 309 307 303
275 275 255 254 260 259 256 258 258 251 253 259 252 251 236 243 251 244 233 232 235 241 236 236 232 236 241 241 242 239 236 238 240 241 242 241 255 264 278 277 349 329 314 311 307 309 315 312 311 301 294 294 293 290
268 269 280 277 257 255 259 259 261 264 262 247 243 242 245 249 250 245 246 234 233 240 237 233 237 238 236 235 231 232 235 237 237 245 250 248 262 271 276 348 325 305 320 307 297 291 292 288 284 278 274 275 273 275
275 268 267 269 269 252 270 235 252 254 253 253 247 248 254 255 255 258 246 245 242 239 239 234 233 235 237 238 233 243 240 232 251 249 242 262 279 261 297 327 322 351 321 315 294 281 273 268 266 272 275 273 275 279
282 276 271 266 265 262 263 265 264 262 259 256 258 257 257 256 259 260 260 249 248 243 237 238 239 238 242 241 241 242 249 252 251 248 264 277 260 277 333 330 335 310 285 275 271 270 266 267 258 267 167 169 277 276
304 290 280 274 271 266 262 260 260 258 254 255 253 259 251 250 254 257 256 258 274 260 254 253 251 246 242 198 244 247 251 253 264 268 266 263 273 345 331 314 294 275 271 268 264 269 267 268 265 263 255 275 263 279
318 313 300 291 282 274 273 270 268 266 262 259 256 258 260 258 254 253 258 261 264 266 265 263 265 263 250 257 256 263 262 269 268 258 264 266 302 331 311 288 275 268 266 265 269 259 264 262 257 266 260 280 284 289
332 320 317 314 303 293 288 279 274 271 269 267 265 265 262 264 256 258 262 261 258 258 262 262 262 267 271 273 271 269 272 260 257 267 263 281 328 324 295 275 260 266 263 264 258 259 260 264 261 266 268 272 286 290
316 316 311 318 323 322 318 303 289 282 277 274 273 269 266 268 268 261 260 259 261 261 256 259 262 262 263 267 268 266 256 252 267 267 284 349 320 302 280 265 266 263 263 259 260 258 251 262 259 275 276 267 287 298
309 321 311 327 319 308 314 311 313 309 305 304 287 276 277 273 268 268 271 271 268 262 257 262 264 266 264 263 260 251 265 273 273 293 360 323 314 288 268 264 262 258 264 252 253 260 263 262 260 265 276 287 288 304
317 305 326 334 320 319 317 319 314 310 310 306 302 300 295 288 282 279 275 270 272 272 269 269 271 271 266 264 263 267 283 277 301 321 327 314 298 277 263 264 259 254 251 250 258 260 256 254 258 266 300 281 289 306
339 309 295 295 312 307 317 317 316 315 313 314 313 311 309 307 304 298 292 290 288 284 293 297 299 299 294 287 292 295 298 312 324 333 321 309 281 266 263 260 259 257 253 254 252 240 253 257 270 274 287 283 290 306
330 368 362 351 300 305 302 308 314 313 311 313 312 310 311 311 309 310 309 308 305 302 302 299 296 297 295 298 301 315 372 359 332 336 314 285 267 261 262 258 262 254 252 254 255 253 255 258 274 302 285 284 293 303
346 340 343 347 341 344 348 347 342 326 340 325 324 325 325 327 326 324 322 318 315 312 310 310 310 314 319 343 342 372 348 328 327 295 284 266 267 261 264 261 252 255 246 253 254 252 249 255 277 302 286 286 305 298
347 344 347 318 333 335 342 343 350 357 362 354 366 355 359 345 342 344 339 334 332 338 358 363 365 365 364 356 357 332 322 324 295 288 278 267 262 263 263 259 255 253 255 253 253 254 243 256 277 301 286 288 299 294
348 339 339 351 326 353 351 352 347 352 353 368 357 361 362 367 365 363 363 359 357 355 356 351 348 346 346 335 318 316 308 292 289 266 268 263 263 265 262 257 255 256 254 254 255 256 246 268 275 299 291 289 289 295
367 370 398 392 336 351 366 373 364 347 342 344 350 354 355 355 352 344 344 344 343 339 334 332 333 334 315 308 309 294 289 289 281 270 266 266 264 260 262 258 257 256 260 258 259 255 262 277 276 294 293 293 302 299
343 339 332 323 316 330 347 348 356 354 352 348 344 333 328 325 329 328 332 333 335 333 326 317 307 302 299 307 279 287 275 280 275 269 267 266 256 260 263 259 254 259 254 255 259 261 251 279 289 294 292 299 306 304

GFSWCAN_2pvu_pres_150.txt.gz
Presure
381 385 394 388 370 367 373 387 387 383 382 367 357 329 319 312 306 299 291 284 282 281 274 275 274 274 277 274 271 267 269 266 264 264 274 267 265 269 259 256 259 258 254 253 249 250 249 247 245 245 242 246 241 252
380 391 400 414 421 420 414 398 389 382 361 334 320 312 309 300 294 288 282 277 276 274 277 275 272 270 272 269 266 263 264 299 290 280 269 272 270 253 266 259 261 261 253 252 245 242 242 235 237 244 244 240 248 257
374 395 427 433 418 424 425 388 382 349 324 318 311 304 300 288 281 277 277 276 275 274 274 272 266 267 273 262 266 279 283 273 271 265 262 259 265 259 262 266 261 252 244 239 238 232 236 235 239 244 245 256 267 288
337 381 405 397 389 375 357 350 337 322 317 309 306 298 290 285 280 283 283 278 272 267 266 268 266 279 266 280 280 274 273 265 268 260 263 261 267 261 264 257 248 243 238 237 232 237 237 243 242 243 252 272 286 275
311 312 318 330 329 326 320 314 310 309 308 301 292 287 286 288 283 280 274 267 258 268 267 259 281 277 281 269 257 257 266 269 270 300 261 271 262 260 255 249 237 235 231 234 233 230 235 237 242 262 253 289 274 269
293 295 306 297 299 302 302 297 294 292 292 291 288 286 274 275 272 273 274 278 270 275 274 273 277 265 263 252 263 273 299 288 280 279 267 258 257 255 243 238 232 235 232 232 233 235 235 246 267 253 297 277 271 254
303 297 302 309 293 292 290 287 289 287 282 278 274 269 275 269 269 271 266 270 274 272 264 265 266 266 264 273 289 292 285 273 263 261 260 248 247 240 235 232 236 234 233 236 235 239 245 260 259 301 280 268 254 256
293 261 279 274 279 281 279 278 275 263 282 297 297 289 269 266 266 268 267 260 255 258 262 267 272 313 296 273 272 273 267 260 257 253 247 238 233 231 231 232 234 239 233 236 240 252 254 263 299 275 259 257 256 271
262 269 275 270 267 268 265 270 267 259 265 268 267 263 267 264 251 253 258 261 267 274 281 294 286 274 272 273 273 247 265 250 241 239 236 231 232 230 239 240 234 232 234 241 246 257 303 283 265 252 256 272 284 282
230 268 267 267 278 260 272 265 253 251 255 256 249 257 244 239 265 275 276 288 280 271 261 260 261 248 268 254 244 243 236 238 228 230 234 229 231 234 239 240 242 233 242 248 265 292 269 252 248 265 284 292 381 369
265 260 255 261 258 245 254 253 248 248 267 270 272 277 286 290 278 269 264 266 268 266 262 256 252 251 238 237 238 234 231 230 233 238 232 231 232 231 237 238 241 245 257 310 275 258 244 253 287 302 405 389 375 367
259 255 254 257 245 256 248 257 290 285 284 280 266 265 269 264 263 252 257 251 245 245 242 240 231 233 237 233 231 230 230 234 233 232 234 234 239 236 240 248 257 269 312 263 246 244 260 277 371 394 396 385 370 381
257 264 234 260 242 276 273 262 267 261 261 263 266 261 255 253 254 250 244 240 243 240 234 237 233 235 231 224 224 234 236 232 233 236 236 241 245 265 276 275 306 279 256 243 244 268 273 362 341 376 363 356 351 348
233 256 260 240 273 250 268 273 268 253 262 258 256 250 245 248 245 237 232 237 234 233 234 233 231 229 230 229 231 229 234 235 237 248 261 285 288 286 297 286 255 243 239 245 262 279 332 337 326 342 327 304 296 289
245 243 255 265 255 256 244 253 257 266 260 247 245 238 242 244 242 241 242 242 238 237 232 229 228 228 234 230 230 234 245 252 262 289 292 291 290 267 252 243 241 233 244 254 290 274 337 330 306 298 292 283 277 279
261 249 250 255 257 243 250 244 241 253 253 253 247 240 234 229 240 237 238 238 236 236 235 236 236 230 231 234 237 238 245 237 251 256 259 254 247 240 233 236 235 245 250 281 273 347 362 320 299 286 279 275 273 268
248 259 249 244 250 245 258 251 249 236 239 231 235 245 239 240 236 234 234 230 225 224 225 228 229 232 233 235 237 239 246 237 237 239 244 241 237 232 236 245 239 247 263 283 267 369 335 301 286 279 274 269 265 266
244 239 245 248 250 239 245 258 253 246 234 234 236 236 238 234 231 229 232 234 232 232 233 229 229 229 229 237 243 239 243 244 240 239 241 241 243 241 245 239 243 250 269 274 263 348 294 279 274 275 266 262 258 261
254 244 242 231 249 251 241 241 251 247 250 246 244 241 240 235 237 246 247 243 233 234 232 228 232 233 239 242 236 242 237 241 245 243 238 236 238 239 247 241 250 268 272 269 261 306 287 275 269 268 263 261 257 262
251 249 248 256 253 252 245 234 244 242 248 234 239 232 233 232 235 241 236 230 238 242 236 227 233 242 239 245 247 239 250 240 241 237 246 241 237 248 258 265 268 276 261 269 262 304 288 272 265 266 260 263 260 260
264 258 247 251 254 254 244 226 225 230 240 240 237 243 243 240 246 239 230 238 243 232 227 235 235 241 242 248 262 256 254 262 259 255 252 247 259 260 270 271 276 266 260 270 263 310 288 272 265 263 264 256 260 254
250 256 256 251 252 254 257 253 251 232 253 244 233 239 237 233 240 246 240 234 237 244 248 250 250 243 239 257 258 257 263 261 261 267 277 268 267 269 266 260 269 256 263 268 264 317 288 271 267 261 262 253 258 257
262 261 253 252 243 248 242 247 247 246 232 242 248 239 246 236 245 251 241 238 244 249 250 249 253 260 259 254 260 258 255 259 257 261 263 262 263 260 259 262 268 258 261 273 336 322 289 273 264 264 257 258 260 255
276 271 264 259 256 251 255 253 240 245 251 247 246 246 249 251 253 254 254 252 251 249 261 261 260 250 254 254 258 258 253 256 257 260 261 259 261 261 254 262 268 262 272 300 337 320 289 273 267 262 263 262 259 258
273 264 274 272 270 264 261 261 260 261 260 260 260 259 255 265 266 260 262 249 247 259 258 258 258 259 257 249 256 257 253 262 261 259 263 259 262 266 267 269 281 289 292 304 340 319 291 272 269 261 265 258 257 255
283 281 277 277 275 270 259 266 265 263 264 263 265 267 268 266 262 263 259 262 262 252 254 259 253 260 260 259 259 260 262 266 265 269 272 269 272 272 271 279 298 301 305 315 337 316 292 271 269 263 262 263 259 253
325 311 295 289 281 276 273 275 275 274 273 271 270 269 270 270 270 268 269 270 270 269 268 269 269 271 272 272 272 273 274 275 278 282 283 277 276 275 284 297 305 309 310 335 335 312 289 271 270 266 264 262 266 254
349 349 345 326 323 304 295 291 286 286 283 282 279 277 279 277 279 281 281 284 287 287 286 285 285 286 287 292 293 297 297 295 298 294 293 299 297 298 304 311 313 313 321 343 330 310 284 273 272 269 262 261 259 255
330 332 337 340 344 347 350 349 347 342 340 342 331 317 325 326 318 341 344 345 346 341 333 328 322 321 318 316 313 309 305 302 307 309 306 308 310 316 320 318 315 325 342 333 320 306 279 269 270 268 264 260 264 253
342 314 317 324 340 333 331 337 337 330 337 337 335 336 337 337 299 342 339 337 333 333 331 328 324 319 319 317 315 314 316 316 315 314 318 325 328 321 320 323 348 341 333 323 313 288 276 274 267 265 269 260 263 264
353 357 354 340 348 311 342 347 343 304 346 337 321 332 328 321 320 327 351 332 295 331 351 342 336 335 329 328 327 328 327 331 334 335 332 333 347 356 355 346 337 329 322 315 300 280 275 269 270 267 264 265 267 263
364 351 349 351 354 355 356 346 321 313 296 292 292 291 314 317 320 338 365 322 334 370 371 366 359 355 353 346 347 346 355 354 356 356 355 356 352 346 337 328 321 318 314 303 289 276 275 271 266 272 272 264 264 276
370 346 361 363 355 345 362 335 350 349 340 362 361 360 365 343 347 368 350 357 361 366 369 354 357 368 364 360 357 357 356 354 352 348 346 341 332 323 317 313 314 308 298 284 280 278 274 273 277 271 277 283 287 287

GFSWCAN_2pvu_pres_156.txt.gz
Presure
355 350 347 346 348 349 349 352 356 363 371 381 379 378 365 349 348 355 335 353 375 342 311 304 307 345 350 348 343 322 325 318 311 309 299 294 283 259 274 268 260 257 263 309 307 289 287 278 292 278 274 268 268 266
330 329 328 332 336 338 342 347 348 352 357 362 369 370 365 355 341 342 349 381 345 316 295 300 299 313 321 339 334 329 302 290 285 283 279 280 282 291 293 284 292 296 283 278 280 275 277 267 277 277 269 266 267 254
357 357 357 358 364 371 381 340 333 337 343 351 355 353 368 353 343 337 362 335 316 295 300 282 279 299 307 312 312 313 337 332 317 311 294 294 296 285 291 287 278 275 277 269 274 282 276 273 265 268 263 264 256 249
347 360 358 365 370 366 366 382 398 372 333 337 341 354 366 347 342 366 350 333 316 305 282 288 283 285 288 297 297 298 296 296 291 296 294 292 290 281 273 266 267 268 274 281 275 271 266 264 261 265 257 256 245 243
346 359 372 366 378 375 374 386 401 422 425 342 353 372 337 369 351 340 341 313 312 305 282 271 283 286 289 284 282 280 278 278 274 271 267 272 269 260 262 264 273 275 272 271 268 262 264 261 262 253 248 246 240 237
361 374 374 377 395 373 384 403 375 371 378 367 351 366 349 336 326 318 297 290 285 290 281 295 288 282 275 270 273 272 274 270 260 263 260 256 257 259 268 273 268 273 268 259 265 264 258 256 254 241 246 244 236 245
377 382 404 426 396 385 412 365 366 357 364 346 357 336 327 311 303 298 293 294 289 279 293 282 271 271 273 271 266 260 257 256 256 257 253 258 274 277 277 269 263 257 258 264 266 259 254 237 243 244 239 243 245 256
432 440 448 398 413 435 355 353 364 372 357 331 321 312 304 298 292 285 284 274 282 275 275 276 272 267 262 258 256 256 256 258 265 263 270 264 266 264 280 274 264 263 260 250 257 249 246 242 237 245 246 252 271 302
379 401 420 447 442 369 370 367 346 329 322 315 307 296 289 286 283 283 280 279 277 273 265 261 256 259 258 258 256 258 274 270 265 271 264 283 288 269 263 259 255 252 252 249 242 238 237 237 243 253 260 298 251 255
368 376 379 369 360 352 339 332 321 313 308 303 300 295 286 282 281 277 272 269 266 261 262 257 255 249 260 262 262 265 263 266 257 299 281 263 259 258 253 253 251 246 244 235 235 237 243 245 253 274 257 245 264 285
298 305 308 311 308 307 310 308 304 302 297 291 284 279 279 274 272 272 268 270 264 258 258 258 264 259 267 270 261 262 267 286 279 269 258 256 251 252 255 243 243 238 238 242 243 248 258 279 285 242 245 257 282 317
285 292 289 287 284 283 281 277 274 275 271 271 274 273 276 276 276 273 264 262 261 259 264 265 263 265 268 285 297 272 274 269 257 255 256 245 238 235 240 241 238 241 247 253 260 289 289 247 242 230 248 283 269 323
289 287 283 277 270 271 271 270 273 276 272 278 279 267 267 263 268 262 263 261 259 258 269 279 284 288 273 264 259 256 257 254 246 240 233 230 239 235 237 249 255 260 286 298 274 244 232 247 243 250 262 285 277 318
265 268 268 270 283 278 283 281 281 276 265 265 265 262 260 258 255 251 253 272 274 266 263 258 259 257 257 255 252 245 238 232 234 228 235 232 238 253 246 255 270 267 249 240 236 232 240 248 241 257 284 282 284 310
261 260 260 260 265 269 270 268 268 266 261 255 250 254 254 260 267 270 275 257 255 263 257 262 252 249 245 235 236 234 230 228 229 234 237 233 242 248 239 238 238 237 238 242 243 241 246 250 259 268 283 266 281 299
256 254 249 254 256 255 254 252 253 250 267 269 269 268 269 266 263 264 261 263 264 260 248 246 238 238 226 231 235 228 230 235 232 232 235 239 241 247 246 246 247 246 244 240 244 248 241 262 267 271 279 265 274 303
250 253 253 250 270 270 272 281 284 283 271 266 259 259 262 261 260 261 253 252 249 240 237 236 231 233 237 233 234 231 233 234 233 233 235 241 238 242 252 255 247 253 248 249 259 256 256 266 274 269 270 266 258 275
257 268 279 277 282 288 270 266 268 261 264 256 257 261 258 262 252 246 247 245 242 240 234 235 235 240 235 235 236 232 232 232 233 233 234 240 242 247 250 248 259 268 267 268 265 280 277 273 270 265 263 265 258 270
262 278 278 276 271 262 266 267 272 261 258 256 255 259 255 254 246 242 249 246 245 234 239 236 231 237 237 231 231 231 230 235 235 237 235 238 240 249 255 246 268 266 261 264 258 263 265 266 265 261 263 263 265 281
260 266 256 255 252 253 267 263 262 259 254 253 249 255 245 242 240 238 236 233 232 232 233 233 225 231 234 231 225 223 232 218 237 236 242 242 247 254 248 262 264 261 258 256 255 253 261 262 263 262 264 273 271 281
264 247 254 269 244 241 252 276 267 256 252 252 244 244 242 234 234 236 242 233 229 227 241 233 233 234 227 232 242 247 246 237 241 253 246 235 248 250 256 268 262 259 257 259 254 256 261 263 263 266 273 276 277 275
250 252 247 248 253 263 254 244 259 266 258 252 246 246 243 241 239 244 244 236 237 234 232 232 236 241 238 233 237 237 241 239 239 243 242 237 244 248 268 265 259 259 259 255 258 257 259 264 266 268 275 279 278 278
252 258 250 240 242 238 237 248 238 237 240 243 252 253 255 243 244 242 239 241 243 243 244 240 236 236 236 236 237 244 247 242 244 245 243 241 249 256 262 263 260 259 259 259 256 259 269 270 276 276 287 287 287 289
243 251 232 242 244 247 245 240 244 251 250 242 233 233 243 246 245 244 243 244 243 239 237 241 249 241 246 248 238 236 238 236 236 235 239 250 258 260 255 252 254 258 257 259 263 266 271 276 278 289 294 294 292 299
267 245 257 258 246 233 242 237 235 239 240 243 249 248 242 234 231 238 239 241 237 238 237 235 233 234 234 231 241 243 240 238 244 257 260 263 259 262 256 255 260 262 262 266 273 275 280 292 294 296 300 299 303 305
264 257 264 251 258 259 257 250 243 242 242 242 247 245 245 250 254 250 249 248 243 249 253 240 253 251 237 240 243 252 256 257 254 258 261 263 269 271 273 272 274 279 280 292 318 310 310 303 303 305 303 309 303 315
273 269 270 268 267 265 264 261 262 258 253 256 256 245 245 242 245 246 259 258 252 251 250 250 250 248 249 261 267 265 263 266 267 269 272 273 273 276 280 282 285 294 318 322 319 312 310 307 308 308 313 308 317 317
285 283 283 281 279 267 263 262 265 265 267 267 264 263 261 264 263 262 260 257 259 260 261 264 264 264 266 270 272 273 267 266 274 275 275 275 276 279 285 301 328 331 323 318 314 313 312 308 315 316 320 324 322 336
298 298 295 292 286 284 283 281 276 275 280 277 274 268 261 264 271 270 271 274 274 274 274 273 271 270 268 275 282 278 277 277 278 283 287 289 296 307 334 329 325 318 317 320 317 317 319 318 319 327 328 340 343 337
343 326 318 311 309 304 301 295 293 294 291 290 289 287 288 284 283 284 283 283 284 285 285 282 278 277 282 283 288 289 289 295 312 330 335 339 339 338 335 334 331 329 329 327 323 323 324 330 332 340 348 342 334 326
367 372 370 373 365 354 331 325 320 313 309 308 305 305 304 299 298 264 255 266 265 301 302 308 312 316 348 352 369 356 342 324 346 337 348 354 350 345 352 347 339 337 333 329 332 337 349 354 351 345 333 324 319 315
361 376 370 364 354 348 359 358 360 365 364 364 361 363 362 361 361 363 360 365 361 360 360 355 353 365 375 381 378 366 361 358 331 323 380 380 373 338 333 323 320 330 342 346 352 350 347 340 330 320 317 311 298 289
516 454 390 360 356 363 353 349 354 354 350 342 340 342 343 332 350 345 336 344 349 357 367 376 369 350 354 297 284 292 329 368 361 372 371 359 356 354 353 342 347 349 348 344 339 333 323 318 313 304 297 287 294 271

GFSWCAN_2pvu_pres_159.txt.gz
Presure
397 380 372 370 382 389 388 387 385 391 371 378 357 352 344 341 337 338 337 352 373 371 357 370 355 367 382 390 406 402 392 303 320 257 247 245 248 251 249 248 252 251 244 245 242 238 236 233 236 239 243 291 281 279
381 381 378 378 375 370 366 365 368 378 387 346 343 342 342 339 337 332 343 343 339 340 331 351 333 368 364 370 376 397 400 319 287 306 309 251 245 246 241 241 239 233 239 234 235 236 291 256 294 287 282 277 273 273
330 331 333 342 347 349 352 354 357 361 366 379 340 334 334 333 330 328 326 328 341 342 320 334 323 321 331 343 341 339 361 375 314 301 290 292 280 280 271 274 299 298 289 287 297 290 282 287 284 276 268 269 280 272
352 351 327 324 331 334 338 343 346 348 356 370 380 387 392 356 346 329 356 358 358 328 305 305 308 292 317 322 317 331 325 332 351 319 307 281 284 293 282 294 300 286 293 286 292 280 276 271 262 273 275 270 270 263
341 348 354 354 347 310 315 332 338 345 354 361 371 368 364 341 344 341 336 316 317 306 296 284 287 284 279 289 313 312 314 311 325 299 286 282 292 310 285 284 287 283 285 277 270 267 259 273 268 269 267 266 265 257
345 349 350 358 363 365 360 367 328 336 347 360 360 353 345 346 331 319 301 321 308 290 292 293 274 273 270 266 277 301 310 315 317 305 301 293 288 281 287 278 267 268 269 265 258 267 267 267 262 262 263 260 253 248
353 352 364 359 365 383 366 373 332 324 344 351 350 357 342 335 344 309 305 300 292 290 280 286 271 285 284 290 290 294 288 291 306 314 301 283 267 267 265 260 262 260 260 266 266 270 268 258 262 268 254 252 244 247
370 362 356 365 372 385 373 384 397 331 342 342 351 347 324 330 307 300 298 293 292 282 289 279 276 284 281 282 277 275 273 272 269 272 269 269 266 261 254 255 261 267 268 268 264 261 261 261 257 252 244 247 241 245
408 453 394 390 403 382 395 407 423 334 338 343 357 332 331 315 308 301 293 292 292 292 295 288 285 280 272 267 260 263 263 263 259 257 260 257 255 253 258 270 263 258 262 272 264 262 253 251 245 241 238 243 251 271
420 403 394 406 423 389 375 366 354 347 366 335 345 383 332 309 304 314 299 297 291 308 280 275 268 257 260 260 260 258 255 255 258 251 254 260 259 265 255 269 276 270 264 258 250 247 245 240 233 243 254 268 285 248
365 358 364 365 371 368 369 373 362 354 364 369 353 337 320 302 308 292 297 286 279 271 264 258 259 260 259 258 255 252 252 254 258 263 266 263 259 273 267 263 259 254 248 246 238 237 238 243 257 279 279 249 244 239
358 355 368 375 367 360 361 363 347 331 313 312 318 324 314 306 290 275 271 266 265 259 259 259 257 258 261 255 248 263 268 267 258 254 267 274 271 261 253 242 234 234 230 237 242 251 259 288 275 247 238 239 250 256
314 318 320 319 314 309 307 304 298 301 295 289 283 273 272 268 265 265 263 263 264 260 257 255 253 259 263 253 256 260 253 274 276 267 260 257 234 231 229 234 237 245 251 272 310 278 256 247 241 236 240 246 259 271
278 282 285 290 291 291 289 278 271 267 270 267 264 264 264 260 259 253 253 254 256 259 261 263 255 257 256 282 276 269 273 267 258 249 233 231 231 235 238 240 250 242 243 245 246 243 245 243 247 242 249 254 267 276
274 275 278 279 276 275 276 271 270 265 257 255 254 255 255 252 255 258 262 257 260 258 260 264 281 282 266 265 262 260 260 246 234 232 231 233 233 234 238 242 245 245 244 243 246 242 245 245 244 267 257 274 276 270
279 280 275 275 270 261 254 256 254 261 268 267 263 257 251 255 254 259 256 256 271 277 275 266 261 256 255 257 253 240 236 233 231 230 232 236 234 237 237 243 241 250 251 250 264 268 264 268 274 270 270 269 270 265
270 270 271 267 266 266 266 267 260 259 257 257 255 256 255 258 255 275 268 267 261 257 253 256 255 248 235 227 233 231 229 231 229 233 233 236 236 235 242 247 244 249 259 255 270 271 262 268 262 263 261 264 261 267
257 258 248 255 260 255 255 255 256 253 248 248 260 262 260 270 278 265 255 258 253 258 252 245 244 237 226 232 237 235 233 230 231 235 235 234 233 240 237 249 243 256 255 251 264 269 264 261 258 257 257 263 265 266
244 264 266 268 265 259 258 256 255 259 261 273 278 283 278 264 260 260 263 263 258 245 244 245 238 235 230 237 231 234 236 234 234 233 235 237 242 236 245 257 248 251 255 260 271 270 260 259 260 259 260 259 261 264
278 274 273 271 280 280 279 277 274 271 269 278 266 262 258 261 259 265 245 246 244 241 235 237 238 241 234 236 237 232 234 234 223 232 233 247 238 244 246 249 233 249 248 251 277 263 263 261 263 261 259 259 264 270
278 279 281 280 265 267 271 257 263 269 265 259 257 252 256 256 246 247 250 245 245 249 238 233 232 236 241 228 227 236 222 233 238 242 235 236 245 239 245 252 240 244 250 254 260 271 267 262 261 261 261 262 265 272
263 277 247 247 262 266 264 270 265 260 259 248 247 252 249 247 248 242 237 235 234 234 238 236 229 236 237 234 233 236 239 241 238 236 236 240 246 246 242 240 240 244 241 251 256 268 257 256 263 265 266 265 272 283
274 269 250 255 262 252 236 275 267 260 251 254 252 250 252 246 243 244 236 235 242 242 237 237 239 242 233 236 241 242 238 235 236 237 246 246 236 238 239 237 243 244 258 259 263 264 267 262 263 272 285 296 319 312
259 265 263 252 257 261 259 253 246 246 265 262 255 253 251 249 249 245 244 245 244 249 247 242 238 238 239 238 236 237 238 243 244 231 225 235 241 238 239 242 252 261 259 262 269 276 279 280 278 285 289 322 319 309
247 255 247 248 252 242 250 245 246 249 251 247 240 240 241 243 252 249 243 245 245 241 240 239 239 239 241 242 245 240 236 235 237 242 240 245 247 240 247 253 263 261 265 276 281 273 275 273 284 290 329 320 315 309
268 259 259 249 254 253 244 244 244 243 246 242 245 248 248 243 243 245 244 244 243 239 236 234 232 236 240 241 244 244 245 247 250 253 251 248 247 249 260 261 269 278 275 278 273 277 279 288 296 331 327 313 311 311
265 266 267 268 270 262 256 259 259 255 252 251 250 248 244 239 241 245 245 245 245 247 247 248 248 249 249 250 248 247 248 249 246 249 252 260 264 269 272 272 274 277 283 273 279 286 291 330 331 327 317 314 317 315
284 279 282 265 260 262 262 256 259 260 254 256 255 254 255 255 253 254 255 253 251 253 252 251 252 252 251 252 253 253 253 257 259 270 273 261 275 272 254 276 271 280 289 292 295 339 338 332 328 328 319 320 323 321
295 299 286 288 285 285 285 279 272 271 272 276 274 267 266 266 265 263 264 264 260 256 260 262 263 264 264 265 265 266 267 270 276 277 279 283 265 267 297 294 297 309 352 352 347 345 341 337 336 333 331 327 323 326
329 323 318 314 309 303 298 294 293 290 289 283 280 282 283 277 277 276 277 277 275 275 276 277 277 279 283 284 289 290 281 283 289 289 293 294 302 314 311 362 365 371 361 345 340 342 342 345 345 335 332 337 349 354
372 399 392 370 334 321 317 313 311 310 308 305 304 304 303 300 298 297 296 297 297 297 297 298 298 296 295 269 297 300 302 307 230 314 371 381 379 366 385 370 370 377 363 348 338 331 332 326 329 342 350 351 348 341
419 394 380 363 353 357 386 381 378 374 369 334 327 315 313 313 316 312 310 306 307 308 297 315 365 364 376 346 347 351 348 336 284 371 373 377 383 373 362 358 365 369 365 363 358 351 352 344 351 351 347 338 321 308
337 335 346 416 406 387 376 370 365 375 376 365 365 366 366 361 358 365 265 362 360 276 270 345 334 336 334 347 365 368 358 357 356 372 369 367 364 358 356 364 360 353 352 350 348 345 346 346 345 330 315 305 294 287

GFSWCAN_2pvu_pres_162.txt.gz
Presure
480 443 421 419 408 403 406 387 387 389 391 394 392 390 408 388 398 372 367 349 339 350 353 360 363 397 377 379 368 376 367 378 358 353 330 272 257 244 241 243 243 243 244 248 246 244 239 244 245 240 245 240 237 238
360 436 449 430 393 380 372 371 371 376 377 378 383 387 382 369 361 362 351 334 340 344 340 359 361 359 345 350 388 381 361 368 366 352 339 323 315 290 270 235 237 230 238 242 244 242 244 243 238 240 234 229 231 236
341 370 368 357 365 387 381 382 390 392 373 375 377 375 371 365 363 349 329 329 348 350 349 348 350 342 337 345 350 355 398 381 375 350 358 322 314 296 288 266 259 251 243 239 239 232 227 229 231 230 233 243 260 275
334 327 332 346 370 369 363 362 365 373 367 353 356 351 349 346 338 329 331 335 337 347 344 359 355 343 355 344 355 367 346 336 362 358 366 338 317 303 295 278 272 264 261 250 268 252 241 242 252 288 280 283 291 281
338 345 326 327 332 335 347 354 357 360 364 338 338 339 338 337 329 327 341 328 327 343 350 328 319 331 305 342 339 324 314 311 322 377 345 335 307 293 283 281 278 277 288 280 280 301 299 288 287 290 282 280 274 278
336 337 347 350 321 329 333 334 337 347 356 356 326 332 334 331 332 331 319 330 326 315 318 305 309 313 312 305 314 318 315 321 307 303 388 308 296 286 280 287 280 275 286 300 290 287 284 273 279 274 270 275 276 266
343 348 345 350 355 313 315 329 339 344 352 365 378 315 319 319 310 311 325 300 292 288 295 289 284 287 278 306 295 299 285 293 282 279 288 326 289 298 285 280 290 294 282 284 279 271 267 268 266 271 274 272 260 265
354 332 355 349 360 365 354 321 335 343 353 363 375 382 348 317 327 315 300 297 302 297 288 290 284 277 277 277 279 284 294 294 283 286 304 288 307 300 284 291 284 285 272 275 267 265 259 269 269 266 260 261 255 251
355 357 349 348 347 369 377 356 330 343 356 365 354 335 333 368 323 305 303 293 292 291 282 276 283 261 281 280 281 290 286 288 294 304 310 320 321 313 281 270 273 270 271 256 256 273 267 263 262 257 252 252 243 236
378 367 354 346 347 367 360 371 323 351 364 337 341 376 323 312 297 283 287 283 286 285 276 276 294 275 273 277 275 275 277 275 278 275 271 270 268 268 269 274 254 249 266 264 263 279 268 255 249 250 240 236 238 240
458 459 362 351 349 365 376 379 332 364 363 349 322 293 294 298 301 297 305 286 293 278 294 292 292 283 275 272 271 268 268 266 266 265 260 261 262 257 257 263 261 265 275 267 257 248 246 245 237 238 240 245 259 279
446 428 396 389 394 395 401 329 342 352 362 335 309 309 313 311 305 294 304 294 302 293 285 272 269 267 266 266 266 266 263 258 255 253 254 260 270 264 258 266 263 253 247 241 236 235 236 241 254 267 286 270 254 248
374 376 379 365 359 347 336 339 344 365 329 353 333 326 317 303 290 288 284 288 276 268 257 265 262 266 260 255 253 252 249 247 246 263 265 255 262 268 254 242 236 234 236 237 238 242 249 250 248 248 247 246 244 243
351 357 364 370 373 371 366 353 340 355 387 350 322 316 283 263 265 262 262 265 266 269 265 266 256 252 254 252 254 254 262 263 259 261 279 268 243 238 234 232 233 235 241 246 247 246 244 247 247 248 246 247 245 260
305 304 304 303 297 294 293 290 283 282 269 273 268 261 260 258 256 258 261 257 262 260 259 255 257 256 265 260 258 260 253 264 270 268 247 241 234 232 231 234 235 235 238 239 243 249 250 248 251 269 274 265 268 263
280 280 273 279 279 278 276 276 273 268 263 259 261 258 254 255 256 259 260 257 255 254 260 259 254 264 257 253 266 269 270 262 241 240 238 234 235 234 234 233 236 237 241 238 237 260 258 256 262 268 272 265 264 261
279 272 276 274 270 267 265 265 263 258 263 266 255 264 263 261 253 255 256 261 262 261 258 249 259 275 274 267 266 265 241 241 238 233 231 232 236 230 232 235 233 235 236 238 253 249 249 256 261 279 269 260 260 262
266 266 269 268 265 261 256 260 262 262 264 256 266 259 265 260 259 262 258 257 260 273 276 272 264 261 263 262 241 236 236 232 231 231 232 227 231 237 234 234 241 239 245 249 242 243 248 249 262 261 270 269 264 266
272 270 265 269 269 268 276 270 271 274 256 260 269 272 267 261 256 257 259 272 274 268 262 262 264 269 245 234 231 236 232 233 234 229 231 236 236 233 233 244 237 247 246 249 253 249 246 248 248 262 268 273 267 262
261 266 256 257 261 260 254 268 250 257 260 251 258 253 247 270 269 264 264 263 259 256 258 265 245 234 230 232 233 234 231 234 237 235 235 232 230 232 235 237 235 246 250 249 249 247 248 248 244 259 262 261 266 275
276 273 265 261 252 248 262 259 263 266 260 263 261 274 284 268 257 262 256 260 257 261 242 246 235 234 231 234 236 235 236 236 234 235 223 232 234 243 241 239 239 248 249 247 248 244 251 248 251 259 267 265 282 279
280 276 269 270 272 278 279 280 279 279 272 282 275 266 262 260 262 263 264 252 247 239 235 228 232 234 236 237 232 237 234 233 232 233 234 236 242 239 238 239 249 241 240 246 244 248 251 249 251 267 261 280 280 274
274 272 269 281 273 267 269 267 266 263 272 252 254 255 251 253 255 249 247 244 243 238 237 241 238 237 235 236 237 236 237 230 227 231 242 242 238 238 241 242 225 243 244 246 250 259 252 251 257 263 277 277 279 274
257 280 271 267 256 253 248 259 263 266 265 259 253 247 249 244 244 248 247 245 245 246 239 236 236 240 239 242 245 241 242 238 238 240 240 237 239 242 241 239 242 247 249 256 257 245 256 253 271 276 276 270 284 287
256 254 259 253 256 253 257 254 250 244 263 262 259 256 252 253 254 258 253 247 244 243 241 238 237 236 236 236 238 239 239 239 237 235 234 236 240 245 246 250 252 253 254 239 258 252 244 276 273 278 281 288 293 301
261 254 255 255 257 255 251 249 256 256 249 245 247 243 245 253 248 242 241 243 243 241 241 239 239 238 236 236 234 236 244 243 239 238 245 248 251 250 248 252 258 259 254 252 255 275 281 287 286 291 293 297 333 333
264 267 265 263 257 251 254 257 259 252 250 247 245 246 247 247 246 248 247 248 248 249 249 246 247 245 246 247 246 246 248 248 246 248 249 250 250 250 251 246 271 275 258 275 276 292 290 291 299 300 327 350 344 337
279 279 275 266 266 266 264 264 265 256 258 255 255 253 251 249 250 252 255 249 245 245 245 246 247 249 249 249 250 249 249 250 250 250 247 260 264 238 265 257 273 237 282 246 300 301 306 312 346 368 366 357 327 339
317 299 295 279 283 280 278 267 267 268 266 266 265 261 255 257 260 258 257 253 252 250 249 249 251 252 251 251 255 262 265 265 264 267 269 270 269 271 273 288 303 308 310 252 327 360 389 381 374 361 350 335 323 326
359 338 330 326 311 301 298 295 288 285 284 284 281 275 270 268 269 269 266 265 263 261 262 263 262 263 265 264 267 266 266 269 272 276 276 274 285 304 296 262 321 351 374 385 387 376 370 369 375 373 362 352 344 340
413 405 398 389 382 336 325 319 313 309 298 297 298 297 299 292 284 285 284 285 286 284 284 284 283 285 285 286 290 295 298 303 299 301 299 310 318 354 367 376 379 379 380 370 364 361 363 361 361 361 355 349 353 356
371 356 353 417 406 395 370 361 380 394 340 323 316 313 313 316 310 307 304 302 302 304 304 304 304 304 304 306 307 309 313 315 362 350 346 353 336 363 381 385 378 371 361 364 361 364 362 355 355 353 353 354 349 321
392 380 376 366 351 349 409 405 395 384 365 348 351 360 376 362 359 342 329 331 327 324 326 329 356 369 368 370 365 354 328 288 340 313 345 366 377 381 374 360 373 365 367 364 363 352 351 354 353 350 332 317 309 304

GFSWCAN_2pvu_pres_165.txt.gz
Presure
346 379 374 452 448 438 406 394 389 389 385 366 387 372 390 372 382 370 375 355 369 361 346 367 365 383 384 373 385 363 361 385 376 365 353 346 353 343 337 313 258 246 243 239 240 237 233 230 230 230 246 231 235 248
326 353 392 471 429 403 400 391 390 392 388 400 403 387 373 387 383 371 365 367 367 363 353 361 368 362 358 361 354 370 349 383 375 365 368 352 346 345 346 337 309 296 287 255 243 233 244 240 243 236 239 244 236 232
336 332 374 375 445 417 403 396 391 382 380 387 398 410 386 383 395 405 395 387 410 386 365 350 333 335 342 357 365 381 355 328 359 353 351 365 361 348 347 340 331 313 282 269 262 254 258 255 239 236 247 233 231 238
340 336 336 374 374 372 375 371 368 370 373 373 375 381 388 389 403 399 383 422 394 365 329 322 334 346 354 358 351 360 373 361 350 342 355 360 362 363 350 334 327 322 307 281 270 260 255 252 249 250 244 238 238 237
324 336 326 335 352 382 379 377 379 380 383 394 373 371 376 381 357 371 383 340 326 319 325 330 329 337 337 338 334 328 334 357 385 371 358 363 348 352 341 324 331 311 305 296 289 274 266 256 257 252 254 250 249 277
323 326 338 319 332 343 352 363 363 349 375 380 359 361 362 363 364 335 323 321 328 332 329 327 338 326 336 339 330 348 328 321 309 320 343 367 355 350 320 308 298 301 293 293 291 286 291 296 290 264 270 286 293 288
329 330 337 345 318 331 338 347 352 353 348 337 337 342 347 338 330 324 321 335 338 343 338 325 315 318 333 327 316 309 329 326 319 301 307 310 370 336 319 312 292 285 286 286 282 280 278 276 286 281 279 285 279 269
345 333 340 349 345 323 330 338 345 352 327 329 333 332 327 322 328 327 326 332 317 316 308 309 309 311 312 311 301 289 306 297 290 291 289 293 300 327 305 297 290 283 281 280 284 270 297 281 279 277 275 265 268 271
349 341 342 354 357 305 320 334 342 351 362 324 327 325 321 323 320 322 306 314 301 299 294 294 289 288 292 282 293 286 285 294 291 301 297 298 300 316 286 284 287 286 286 282 294 274 272 273 268 259 271 268 268 266
337 353 336 350 356 361 328 330 340 353 370 316 323 315 317 332 306 284 299 283 285 283 294 276 288 274 281 282 278 286 293 290 292 292 293 297 300 298 300 291 296 298 276 270 272 268 258 263 270 273 265 261 256 248
358 352 354 350 350 359 358 329 345 364 386 309 312 315 291 303 299 289 286 290 286 279 278 278 268 277 280 273 275 282 281 282 280 282 282 286 292 304 307 290 278 275 268 259 257 257 269 262 255 249 247 247 248 255
381 370 366 346 346 351 320 334 357 372 377 333 309 310 311 286 282 290 303 294 282 279 273 289 269 293 286 287 279 277 274 271 267 266 269 268 265 263 258 256 257 259 265 265 259 249 246 245 245 246 252 253 249 247
466 366 354 351 350 362 324 347 357 348 352 337 331 299 303 291 301 296 289 280 276 287 281 278 283 272 269 267 263 262 259 258 260 258 258 253 253 260 260 266 262 252 245 245 246 239 239 245 245 245 246 248 251 251
381 371 363 364 358 333 354 363 338 358 307 321 301 301 298 283 291 269 278 280 285 267 266 271 267 265 263 260 255 259 253 259 258 255 261 268 258 273 259 245 244 244 236 237 242 244 241 241 246 250 250 250 250 257
359 349 350 349 354 319 362 327 317 373 293 330 317 302 276 274 272 295 273 264 267 266 267 266 264 263 254 259 253 253 257 257 266 255 255 271 262 241 245 237 235 235 241 235 237 238 240 238 237 249 253 255 258 282
338 359 317 352 341 280 317 306 317 276 274 270 272 273 269 273 274 273 268 263 264 258 260 263 256 253 252 254 252 258 264 262 257 277 270 250 237 244 234 235 234 230 236 237 243 239 247 253 248 249 247 249 254 257
301 314 324 320 304 309 276 293 277 272 271 269 266 270 274 262 258 262 256 257 256 257 252 254 251 247 254 258 260 264 253 270 267 251 245 242 243 237 235 238 228 232 233 235 240 236 238 244 256 257 237 238 237 233
281 285 292 290 286 287 286 279 283 277 270 274 276 268 263 261 258 256 252 253 256 251 248 253 258 265 264 261 261 274 276 257 246 242 241 227 234 230 227 227 236 234 235 240 237 242 246 247 249 250 251 244 253 248
266 274 269 270 270 265 274 277 278 267 273 259 259 259 258 258 259 256 253 254 254 259 266 258 264 264 271 291 284 253 245 237 235 238 235 233 234 229 230 239 237 233 232 241 241 237 242 251 249 248 248 241 237 251
271 268 269 255 273 271 250 275 265 258 265 261 256 254 250 253 255 260 261 259 261 264 267 277 287 283 268 250 245 243 240 235 232 233 233 238 234 237 238 234 227 231 237 238 243 238 248 248 241 245 248 244 257 241
266 268 276 254 247 262 255 278 255 251 256 260 257 261 260 257 258 258 267 271 278 278 279 268 265 255 245 235 236 237 235 235 231 234 233 234 238 237 228 236 232 231 237 240 241 247 244 239 246 245 252 255 250 252
277 271 264 267 264 259 257 259 255 254 257 255 255 254 257 262 275 276 259 263 266 255 256 263 241 242 238 235 232 233 233 236 235 233 232 236 232 231 232 229 232 238 242 242 245 243 241 245 246 250 256 251 246 261
280 277 268 276 267 267 273 272 274 269 273 268 271 277 278 282 277 262 260 255 256 260 258 253 241 236 235 234 236 235 236 237 235 236 240 242 237 226 232 238 240 241 244 238 237 244 245 254 258 252 240 251 266 265
250 282 279 281 287 270 288 279 281 279 277 276 266 264 260 256 253 258 256 257 254 248 247 244 237 235 236 235 234 236 237 236 239 241 242 236 236 236 237 238 240 236 238 240 249 252 259 252 240 259 264 261 264 274
257 261 258 263 276 285 268 263 246 254 260 266 269 253 254 254 258 258 257 255 248 246 247 247 247 247 244 241 237 234 240 244 236 236 239 240 238 237 234 239 247 248 251 252 237 252 239 264 262 254 266 275 285 290
273 263 255 260 259 262 263 257 254 258 257 255 257 262 264 261 255 249 244 245 248 251 252 246 243 241 237 238 239 237 238 240 240 242 242 239 242 245 247 249 251 254 251 247 253 263 228 266 275 257 264 298 305 320
287 278 271 273 266 261 255 256 259 262 255 252 258 258 255 254 251 250 251 250 251 249 249 246 246 245 245 246 246 248 246 245 245 244 244 245 249 252 251 248 246 247 262 259 273 264 279 220 248 287 315 369 348 387
303 295 286 280 279 280 273 266 263 255 254 255 258 251 250 252 249 246 246 244 248 251 250 248 245 247 245 242 244 240 238 244 251 253 252 247 242 243 246 258 260 255 274 265 246 267 268 294 331 373 382 383 377 372
363 327 311 303 301 293 287 286 276 279 278 270 262 257 254 258 258 254 250 251 251 250 249 249 249 252 253 253 254 253 251 250 250 248 251 256 259 260 255 268 260 268 283 233 286 319 348 354 361 376 367 371 365 367
426 441 432 391 348 323 312 306 297 296 291 285 282 279 278 275 272 267 262 261 261 260 260 261 260 260 259 260 260 261 261 260 258 256 255 262 268 277 277 289 290 241 303 281 366 319 335 383 382 370 368 369 374 365
398 411 398 404 427 423 406 363 347 330 317 305 301 295 292 286 286 285 279 275 270 270 271 271 272 272 271 270 271 271 272 273 275 277 280 281 283 289 299 293 321 282 358 356 368 384 379 379 376 365 371 368 358 356
423 436 431 417 405 390 377 425 421 410 394 350 341 331 322 311 307 300 298 291 291 289 288 288 287 287 290 294 294 295 290 291 291 294 310 314 313 311 331 358 368 348 350 387 385 379 375 370 371 368 359 360 355 335
440 436 429 428 419 414 406 397 383 362 366 414 403 385 376 363 345 333 325 323 319 317 313 313 314 315 315 316 317 317 318 319 317 316 323 288 362 346 336 351 355 379 380 372 367 364 366 374 365 363 355 332 321 314

GFSWCAN_2pvu_pres_168.txt.gz
Presure
370 347 330 324 339 375 370 423 417 410 392 389 388 380 380 388 373 361 351 366 349 345 340 354 348 374 345 344 350 383 383 370 366 364 367 383 391 376 361 348 338 319 308 297 277 265 257 260 260 257 256 237 243 238
352 343 344 322 344 386 462 444 419 397 390 382 380 378 371 376 367 358 357 355 352 346 347 353 349 360 344 346 349 361 375 369 371 376 373 347 356 390 440 370 353 335 328 323 324 307 298 296 272 265 258 242 237 235
311 322 337 325 362 371 434 417 401 386 385 386 384 369 383 381 359 367 359 361 354 365 359 359 344 356 352 337 366 385 381 358 344 354 338 347 371 345 328 348 355 376 346 338 334 327 318 310 288 282 268 261 255 257
307 311 323 339 350 378 434 409 393 387 388 393 389 393 389 388 371 363 364 379 378 364 361 352 358 340 352 362 344 344 347 344 333 346 349 360 342 337 360 354 339 350 358 348 348 342 326 317 301 286 271 261 258 264
311 316 324 338 332 380 361 372 372 372 372 373 378 386 400 397 379 384 392 391 394 386 367 360 378 349 334 333 331 352 350 337 337 329 338 335 347 351 363 371 371 352 338 322 328 335 327 317 303 285 271 265 260 259
315 310 323 336 323 344 366 373 378 376 380 381 370 371 376 392 401 389 389 403 413 401 396 355 334 326 337 371 358 352 359 371 341 339 333 333 323 348 360 356 344 340 316 306 300 299 299 320 292 285 277 264 260 260
324 317 325 337 322 331 350 351 359 358 366 375 367 370 377 360 391 410 398 380 393 338 331 332 337 321 328 337 339 332 358 346 364 377 361 382 355 354 355 362 334 311 302 299 298 300 291 292 294 282 270 270 265 264
329 333 335 343 322 326 335 351 346 340 346 351 360 353 356 361 343 329 330 326 326 329 338 335 326 328 326 328 343 319 295 293 305 295 292 313 367 352 342 325 309 292 284 281 281 280 286 276 276 278 278 274 271 276
337 335 342 350 327 326 333 344 353 347 334 340 347 348 329 322 323 333 337 339 347 339 323 322 312 320 312 301 306 300 297 293 300 288 289 301 308 302 319 299 289 283 280 279 285 284 280 271 280 274 283 278 281 271
334 357 341 354 312 324 333 343 354 326 329 336 334 329 329 329 337 353 319 305 308 312 314 306 303 290 284 303 289 291 284 277 288 288 299 303 305 309 308 290 294 289 289 283 280 276 278 276 271 273 265 262 267 274
339 356 349 364 297 327 336 341 335 322 330 330 325 331 323 339 314 304 308 305 301 299 294 290 291 280 283 281 282 284 278 290 280 281 288 298 302 305 293 295 282 277 281 289 289 280 271 266 259 262 268 255 255 253
343 357 337 360 361 327 334 341 335 327 330 325 320 333 305 315 320 307 296 287 286 282 276 281 279 275 272 282 281 283 281 286 284 287 289 294 305 304 305 294 293 286 285 277 263 258 262 263 257 252 247 246 249 251
365 359 345 358 348 336 340 350 324 330 331 321 334 313 314 269 274 288 280 288 279 286 275 270 268 290 284 286 280 276 273 272 271 269 266 263 267 266 269 267 262 258 265 265 261 257 250 239 245 249 252 251 251 256
370 350 356 356 338 341 350 361 315 322 316 327 307 296 285 278 283 287 290 257 279 284 282 277 272 262 266 268 265 262 263 265 263 260 259 261 257 257 258 273 267 258 257 250 243 243 247 247 244 242 246 241 239 247
364 362 346 305 345 361 369 372 311 305 303 312 310 278 271 280 269 262 283 283 260 280 267 273 267 266 263 261 262 263 265 259 256 256 255 254 263 271 259 256 251 240 245 247 244 246 240 239 246 255 253 253 253 246
348 358 313 332 367 344 350 332 314 318 304 293 279 285 281 287 277 282 276 280 277 272 267 263 263 259 259 261 260 258 256 251 253 263 266 267 269 252 252 235 241 244 235 241 238 238 243 238 237 238 239 240 257 255
370 370 300 329 355 268 367 357 273 274 268 278 294 301 280 271 278 269 269 265 269 260 258 257 257 258 262 259 258 258 250 268 264 256 276 259 252 248 238 246 236 237 237 234 237 238 241 242 239 238 241 245 254 250
327 346 356 294 335 267 287 277 278 273 290 281 286 279 270 277 262 270 266 257 258 256 256 257 257 253 257 258 256 261 265 264 263 279 256 254 246 239 244 237 239 237 231 237 235 236 237 244 245 246 242 243 250 248
257 291 294 255 285 292 296 291 303 291 282 281 277 274 271 260 266 263 256 257 257 255 253 254 255 254 253 264 268 256 260 279 269 250 252 245 242 239 237 234 233 229 240 240 236 232 233 238 243 241 245 249 245 240
256 260 253 255 261 282 272 286 284 276 274 269 270 269 264 259 257 257 258 259 258 253 251 253 261 263 264 252 259 272 281 265 249 246 243 243 238 235 235 234 235 238 240 235 236 235 236 239 241 243 242 241 242 249
273 254 266 270 274 264 258 270 271 252 266 260 257 263 259 257 255 255 253 256 259 263 255 254 251 256 265 275 282 273 258 246 234 240 235 239 235 236 236 237 242 241 233 238 234 235 236 240 241 242 234 250 240 253
278 277 279 282 272 267 270 266 262 267 265 262 264 258 256 261 262 258 257 259 256 271 275 271 274 277 270 261 261 249 244 245 239 235 236 238 239 233 234 234 242 244 240 232 237 240 238 235 247 233 248 252 240 247
268 282 279 277 273 270 261 269 262 259 251 260 254 254 254 255 256 259 267 272 271 263 259 257 259 259 258 251 242 236 235 232 235 236 236 239 237 234 228 223 228 234 235 238 239 240 227 237 247 248 255 245 261 252
262 260 270 275 276 276 274 273 277 277 276 270 270 268 270 276 278 281 288 265 259 260 257 248 258 262 248 245 244 242 236 237 236 237 234 235 227 226 231 235 236 238 239 241 229 240 222 251 250 242 255 259 251 266
271 257 270 263 261 273 278 287 279 279 286 286 283 279 276 277 275 270 259 259 258 260 261 267 269 264 247 244 242 238 233 233 228 234 232 234 236 237 238 240 240 242 242 241 248 250 244 255 246 260 263 259 269 270
290 281 277 273 267 266 260 270 271 264 261 256 261 265 270 267 259 259 259 259 259 261 259 257 254 248 247 248 247 245 244 240 238 239 237 238 239 240 237 236 243 247 249 250 251 253 251 256 262 262 265 249 263 274
311 310 302 288 282 279 271 267 264 265 267 262 260 259 257 257 261 264 263 259 255 250 250 252 253 253 250 248 245 245 243 241 240 240 240 239 242 247 248 247 239 250 253 251 253 256 258 265 265 265 277 221 291 289
395 330 319 315 312 299 289 286 283 275 266 265 266 266 262 258 255 256 257 255 258 259 258 257 257 256 254 254 253 249 249 249 249 250 250 249 252 251 250 253 254 245 253 265 252 264 272 260 278 255 259 374 381 388
424 443 456 404 386 332 320 313 300 294 289 284 279 272 266 267 266 261 260 261 260 260 257 254 250 252 252 253 254 254 256 253 251 252 253 255 256 254 252 258 263 260 254 267 270 278 279 237 279 269 381 377 404 396
428 452 446 431 427 441 433 408 344 323 317 307 297 292 289 284 280 273 270 265 261 261 263 263 262 259 257 255 255 255 258 256 255 257 257 258 260 262 258 260 265 269 274 277 281 285 263 257 267 372 393 392 382 376
337 383 445 459 443 443 436 419 419 434 424 373 328 319 313 305 297 292 286 281 276 273 269 266 261 260 260 259 259 259 259 261 262 263 263 263 266 269 273 276 280 243 291 267 295 321 329 379 357 396 385 372 374 375
336 336 386 469 460 448 445 445 439 427 410 392 409 424 411 369 321 315 306 305 298 293 289 286 279 278 278 277 277 276 276 277 277 277 279 281 285 288 290 240 204 301 317 331 345 364 356 361 382 372 371 379 374 368
346 334 348 409 481 479 471 459 444 433 431 422 409 389 374 400 408 403 368 354 341 322 311 304 302 298 296 295 294 295 295 295 294 292 291 296 304 312 318 323 327 328 347 363 342 356 350 373 370 369 371 368 354 342